Location: �terpigny
(49.8910°N, 2.9249°E)
Time: 06:05:56
(UTC+00:00)

NANOSAT C BR1 - Pass Details

Date: 02 July 2022
Orbit: 584 x 599 km, 98.0° (Epoch: 14 August)

Event Time Altitude Azimuth Distance (km) Brightness Sun altitude
Rises 02:55:27 0° 6° (N) 2,851 ? -6.6°
Reaches altitude 10° 02:57:48 10° 356° (N) 1,946 ? -6.3°
Maximum altitude 03:01:32 31° 294° (WNW) 1,055 ? -5.9°
Drops below altitude 10° 03:05:15 10° 232° (SW) 1,939 ? -5.5°
Enters shadow 03:05:59 - 228° (SW) 2,215 ? -5.4°
